Location: Allens Chapel
(33.6459°N, 95.9605°W)
Time: 08:16:04
(UTC+00:00)

Tiangong - Visible Passes

Search period start: 11 October 2024 00:00
Search period end: 21 October 2024 00:00
Orbit: 372 x 377 km, 41.5° (Epoch: 10 October)

Date Brightness Start Highest point End Pass type
(mag) Time Alt. Az. Time Alt. Az. Time Alt. Az.
13 Oct 1.3 11:50:23 10° SE 11:50:26 10° SE 11:50:29 10° SE visible
15 Oct 0.5 11:18:35 10° S 11:20:45 18° SE 11:22:56 10° E visible
16 Oct -1.9 11:50:53 10° SW 11:53:58 67° SSE 11:57:02 10° ENE visible
17 Oct -0.6 10:50:44 30° SSE 10:50:49 30° SE 10:53:36 10° E visible
18 Oct -2.3 11:22:55 36° W 11:24:00 71° NNW 11:27:05 10° ENE visible
19 Oct 0.9 10:22:54 16° ENE 10:22:54 16° ENE 10:23:41 10° ENE visible
19 Oct -0.9 11:54:54 12° WNW 11:57:20 28° NNW 12:00:06 10° NE visible
20 Oct -0.8 10:54:43 33° NNE 10:54:43 33° NNE 10:56:46 10° NE visible
